EPGD Weather Reports


time (UTC)temp
C
wind
direction
speed
KPH
gust
KPH
rain 1hr
cm
rain 24hr
cm
rain mn
cm
humidity
%
barometer
mb
20260507020504 5 10 16.1 0.0 0.00 0.00 0.00 93 1010.0
20260507013503 5 10 16.1 0.0 0.00 0.00 0.00 100 1010.0
20260507010504 5 20 14.5 0.0 0.00 0.00 0.00 100 1010.0
20260507003504 5 360 19.3 0.0 0.00 0.00 0.00 100 1009.0
20260507000504 5 10 20.9 0.0 0.00 0.00 0.00 100 1009.0
20260506233503 5 10 16.1 0.0 0.00 0.00 0.00 100 1009.0
20260506230504 5 10 14.5 0.0 0.00 0.00 0.00 100 1009.0
20260506223503 5 30 16.1 0.0 0.00 0.00 0.00 100 1009.0
20260506220504 5 30 16.1 0.0 0.00 0.00 0.00 100 1009.0
20260506213504 5 30 20.9 0.0 0.00 0.00 0.00 100 1009.0
20260506210504 5 40 24.1 0.0 0.00 0.00 0.00 100 1009.0
20260506203503 5 40 27.4 0.0 0.00 0.00 0.00 100 1008.0
20260506200504 5 40 24.1 0.0 0.00 0.00 0.00 100 1008.0
20260506193504 5 30 20.9 0.0 0.00 0.00 0.00 100 1008.0
20260506190504 5 40 27.4 0.0 0.00 0.00 0.00 100 1008.0
20260506183504 5 40 24.1 0.0 0.00 0.00 0.00 100 1008.0
20260506180504 5 40 24.1 0.0 0.00 0.00 0.00 100 1007.0
20260506173503 5 40 27.4 0.0 0.00 0.00 0.00 100 1007.0
20260506170504 5 40 29.0 0.0 0.00 0.00 0.00 100 1007.0
20260506163504 5 40 27.4 0.0 0.00 0.00 0.00 100 1007.0
20260506160503 5 40 29.0 0.0 0.00 0.00 0.00 100 1007.0
20260506153504 5 40 32.2 0.0 0.00 0.00 0.00 100 1007.0
20260506150504 5 50 25.7 0.0 0.00 0.00 0.00 100 1007.0
20260506143504 5 50 24.1 0.0 0.00 0.00 0.00 100 1007.0
20260506140504 5 50 32.2 0.0 0.00 0.00 0.00 100 1007.0
20260506133503 5 50 29.0 0.0 0.00 0.00 0.00 93 1007.0
20260506130504 5 50 32.2 0.0 0.00 0.00 0.00 86 1007.0
20260506123503 5 50 33.8 0.0 0.00 0.00 0.00 86 1007.0
20260506120504 5 40 33.8 0.0 0.00 0.00 0.00 86 1007.0
20260506113503 5 40 29.0 0.0 0.00 0.00 0.00 86 1007.0
20260506110504 5 40 32.2 0.0 0.00 0.00 0.00 86 1007.0
20260506103504 5 40 22.5 0.0 0.00 0.00 0.00 93 1007.0
20260506100504 5 50 22.5 0.0 0.00 0.00 0.00 93 1007.0
20260506093503 6 50 27.4 0.0 0.00 0.00 0.00 87 1007.0
20260506090504 6 60 27.4 0.0 0.00 0.00 0.00 87 1007.0
20260506083503 6 60 25.7 0.0 0.00 0.00 0.00 87 1007.0
20260506080504 6 50 24.1 0.0 0.00 0.00 0.00 100 1007.0
20260506073503 6 50 22.5 0.0 0.00 0.00 0.00 100 1007.0
20260506070504 6 50 19.3 0.0 0.00 0.00 0.00 100 1008.0
20260506060504 6 50 19.3 0.0 0.00 0.00 0.00 100 1008.0
20260506050504 6 50 19.3 0.0 0.00 0.00 0.00 93 1008.0
20260506043503 5 50 19.3 0.0 0.00 0.00 0.00 100 1009.0
20260506040504 5 50 14.5 0.0 0.00 0.00 0.00 100 1009.0
20260506033503 5 40 12.9 0.0 0.00 0.00 0.00 100 1009.0
20260506030504 5 30 9.7 0.0 0.00 0.00 0.00 100 1009.0
20260506023504 5 40 8.0 0.0 0.00 0.00 0.00 100 1009.0